{"data":{"norad_id":64304,"epoch":"2026-05-25T01:10:23.556000Z","epoch_age_seconds":70718,"freshness":"FRESH","line1":"1 64304U 25123P   26145.04888375 -.00061414  00000+0 -52057-2 0  9999","line2":"2 64304  70.0061   2.0364 0001717  73.3373 286.7974 14.98175163 53051","mean_motion":14.98175163,"eccentricity":0.0001717,"inclination_deg":70.0061,"raan_deg":2.0364,"arg_perigee_deg":73.3373,"mean_anomaly_deg":286.7974,"bstar":-0.0052057,"rev_number":5305,"period_min":96.116931822344,"perigee_km":571.34132249252,"apogee_km":573.72818317244,"semimajor_km":6950.6717528325,"source":"CELESTRAK","updated_at":"2026-05-25T13:38:20.368360Z"}}